When you browse on this site, cookies collect data to enhance your experience and personalize the content and advertising you see.
Visit our Privacy Policy to learn more. By continuing to use the site, you agree to this use of cookies and data.
  • In Hungary
  • List of Countries
  • For 7 days
  • Water Temperature
  • Weather Map
  • News
  • Weather Widgets
  • user-avatar
    Login

    Hourly Weather Sibirki

    Today, 20 October, Sunday

    Time Temperature Precipitation Wind Pressure Humidity
    00:00 +13°C° 0 mm 2 mps 760 mmHg 73%
    01:00 +13°C° 0 mm 2 mps 760 mmHg 75%
    02:00 +13°C° 0 mm 2 mps 760 mmHg 77%
    03:00 +13°C° 0 mm 2 mps 760 mmHg 79%
    04:00 +12°C° 0 mm 2 mps 760 mmHg 80%
    05:00 +12°C° 0 mm 2 mps 760 mmHg 81%
    06:00 +12°C° 0 mm 2 mps 761 mmHg 83%
    07:00 +12°C° 0 mm 3 mps 761 mmHg 79%
    08:00 +13°C° 0 mm 3 mps 761 mmHg 75%
    09:00 +14°C° 0 mm 3 mps 761 mmHg 71%
    10:00 +17°C° 0 mm 3 mps 761 mmHg 65%
    11:00 +18°C° 0 mm 4 mps 761 mmHg 60%
    12:00 +20°C° 0 mm 4 mps 761 mmHg 54%
    13:00 +20°C° 0 mm 4 mps 761 mmHg 53%
    14:00 +20°C° 0 mm 3 mps 761 mmHg 52%
    15:00 +20°C° 0 mm 3 mps 761 mmHg 51%
    16:00 +19°C° 0 mm 3 mps 761 mmHg 56%
    17:00 +18°C° 0 mm 3 mps 761 mmHg 62%
    18:00 +16°C° 0 mm 3 mps 761 mmHg 68%
    19:00 +16°C° 0 mm 3 mps 762 mmHg 70%
    20:00 +14°C° 0 mm 3 mps 762 mmHg 72%
    21:00 +13°C° 0 mm 3 mps 762 mmHg 75%
    22:00 +13°C° 0 mm 3 mps 762 mmHg 75%
    23:00 +13°C° 0 mm 3 mps 762 mmHg 76%

    Tomorrow, 21 October, Monday

    Time Temperature Precipitation Wind Pressure Humidity
    00:00 +12°C° 0 mm 3 mps 762 mmHg 77%
    01:00 +12°C° 0 mm 3 mps 762 mmHg 77%
    02:00 +11°C° 0 mm 3 mps 763 mmHg 77%
    03:00 +11°C° 0 mm 3 mps 763 mmHg 78%
    04:00 +11°C° 0 mm 3 mps 763 mmHg 79%
    05:00 +10°C° 0 mm 3 mps 762 mmHg 80%
    06:00 +10°C° 0 mm 3 mps 762 mmHg 82%
    07:00 +11°C° 0 mm 3 mps 763 mmHg 77%
    08:00 +12°C° 0 mm 3 mps 763 mmHg 72%
    09:00 +13°C° 0 mm 3 mps 763 mmHg 68%
    10:00 +16°C° 0 mm 3 mps 763 mmHg 61%
    11:00 +17°C° 0 mm 3 mps 763 mmHg 55%
    12:00 +19°C° 0 mm 3 mps 763 mmHg 48%
    13:00 +19°C° 0 mm 3 mps 763 mmHg 47%
    14:00 +19°C° 0 mm 3 mps 762 mmHg 45%
    15:00 +20°C° 0 mm 3 mps 762 mmHg 44%
    16:00 +18°C° 0 mm 2 mps 762 mmHg 48%
    17:00 +17°C° 0 mm 2 mps 762 mmHg 53%
    18:00 +15°C° 0 mm 2 mps 761 mmHg 57%
    19:00 +15°C° 0 mm 2 mps 761 mmHg 59%
    20:00 +14°C° 0 mm 2 mps 762 mmHg 61%
    21:00 +14°C° 0 mm 2 mps 762 mmHg 63%
    22:00 +13°C° 0 mm 2 mps 761 mmHg 65%
    23:00 +13°C° 0 mm 2 mps 761 mmHg 68%

    Day after tomorrow, 22 October, Tuesday

    Time Temperature Precipitation Wind Pressure Humidity
    00:00 +12°C° 0 mm 2 mps 761 mmHg 70%
    01:00 +12°C° 0 mm 1 mps 761 mmHg 71%
    02:00 +12°C° 0 mm 1 mps 761 mmHg 72%
    03:00 +12°C° 0 mm 1 mps 761 mmHg 73%
    04:00 +11°C° 0 mm 1 mps 761 mmHg 73%
    05:00 +11°C° 0 mm 1 mps 761 mmHg 72%
    06:00 +11°C° 0 mm 1 mps 761 mmHg 72%
    07:00 +12°C° 0 mm 1 mps 761 mmHg 68%
    08:00 +14°C° 0 mm 1 mps 761 mmHg 63%
    09:00 +15°C° 0 mm 1 mps 761 mmHg 58%
    10:00 +16°C° 0 mm 1 mps 761 mmHg 54%
    11:00 +18°C° 0 mm 2 mps 761 mmHg 49%
    12:00 +19°C° 0 mm 2 mps 761 mmHg 44%
    13:00 +20°C° 0 mm 2 mps 761 mmHg 44%
    14:00 +20°C° 0 mm 2 mps 760 mmHg 43%
    15:00 +20°C° 0 mm 2 mps 760 mmHg 42%
    16:00 +19°C° 0 mm 2 mps 760 mmHg 47%
    17:00 +19°C° 0 mm 1 mps 760 mmHg 51%
    18:00 +18°C° 0 mm 1 mps 760 mmHg 55%
    19:00 +16°C° 0 mm 1 mps 760 mmHg 57%
    20:00 +15°C° 0 mm 1 mps 760 mmHg 59%
    21:00 +15°C° 0 mm 1 mps 760 mmHg 61%
    22:00 +15°C° 0 mm 1 mps 760 mmHg 63%
    23:00 +14°C° 0 mm 1 mps 760 mmHg 64%

    23 October, Wednesday

    Time Temperature Precipitation Wind Pressure Humidity
    00:00 +14°C° 0 mm 1 mps 760 mmHg 66%
    01:00 +14°C° 0 mm 1 mps 760 mmHg 68%
    02:00 +13°C° 0 mm 1 mps 760 mmHg 70%
    03:00 +13°C° 0 mm 1 mps 760 mmHg 72%
    04:00 +13°C° 0 mm 1 mps 760 mmHg 75%
    05:00 +12°C° 0 mm 1 mps 760 mmHg 78%
    06:00 +12°C° 0 mm 1 mps 760 mmHg 80%
    07:00 +13°C° 0 mm 1 mps 760 mmHg 76%
    08:00 +14°C° 0 mm 1 mps 760 mmHg 73%
    09:00 +15°C° 0 mm 1 mps 761 mmHg 69%
    10:00 +18°C° 0 mm 1 mps 761 mmHg 64%
    11:00 +19°C° 0 mm 1 mps 761 mmHg 60%
    12:00 +20°C° 0 mm 1 mps 761 mmHg 55%
    13:00 +21°C° 0 mm 1 mps 760 mmHg 54%
    14:00 +21°C° 0 mm 1 mps 760 mmHg 53%
    15:00 +22°C° 0 mm 1 mps 760 mmHg 51%
    16:00 +20°C° 0 mm 1 mps 760 mmHg 56%
    17:00 +19°C° 0 mm 1 mps 760 mmHg 61%
    18:00 +18°C° 0 mm 1 mps 760 mmHg 65%
    19:00 +16°C° 0 mm 1 mps 760 mmHg 68%
    20:00 +16°C° 0 mm 2 mps 760 mmHg 71%
    21:00 +15°C° 0 mm 2 mps 760 mmHg 73%
    22:00 +15°C° 0 mm 2 mps 760 mmHg 75%
    23:00 +14°C° 0 mm 2 mps 759 mmHg 77%

    24 October, Thursday

    Time Temperature Precipitation Wind Pressure Humidity
    00:00 +14°C° 0 mm 2 mps 759 mmHg 79%
    01:00 +13°C° 0 mm 2 mps 759 mmHg 81%
    02:00 +13°C° 0 mm 2 mps 759 mmHg 83%
    03:00 +13°C° 0 mm 2 mps 759 mmHg 86%
    04:00 +13°C° 0 mm 2 mps 759 mmHg 86%
    05:00 +12°C° 0 mm 2 mps 759 mmHg 87%
    06:00 +12°C° 0 mm 2 mps 759 mmHg 88%
    07:00 +13°C° 0 mm 2 mps 759 mmHg 82%
    08:00 +14°C° 0 mm 2 mps 759 mmHg 77%
    09:00 +15°C° 0 mm 2 mps 759 mmHg 71%
    10:00 +17°C° 0 mm 3 mps 759 mmHg 65%
    11:00 +18°C° 0 mm 3 mps 759 mmHg 59%
    12:00 +20°C° 0 mm 3 mps 758 mmHg 52%
    13:00 +20°C° 0 mm 3 mps 758 mmHg 51%
    14:00 +20°C° 0 mm 3 mps 758 mmHg 50%
    15:00 +20°C° 0 mm 2 mps 758 mmHg 49%
    16:00 +19°C° 0 mm 2 mps 757 mmHg 53%
    17:00 +18°C° 0 mm 2 mps 757 mmHg 57%
    18:00 +17°C° 0 mm 2 mps 757 mmHg 61%
    19:00 +16°C° 0 mm 2 mps 757 mmHg 63%
    20:00 +16°C° 0 mm 2 mps 757 mmHg 65%
    21:00 +15°C° 0 mm 2 mps 757 mmHg 68%
    22:00 +15°C° 0 mm 2 mps 757 mmHg 69%
    23:00 +14°C° 0 mm 2 mps 757 mmHg 70%

    25 October, Friday

    Time Temperature Precipitation Wind Pressure Humidity
    00:00 +14°C° 0 mm 2 mps 757 mmHg 71%
    01:00 +13°C° 0 mm 2 mps 757 mmHg 71%
    02:00 +13°C° 0 mm 2 mps 757 mmHg 71%
    03:00 +13°C° 0 mm 2 mps 757 mmHg 71%
    04:00 +13°C° 0 mm 2 mps 757 mmHg 71%
    05:00 +12°C° 0 mm 2 mps 757 mmHg 71%
    06:00 +12°C° 0 mm 2 mps 757 mmHg 71%
    07:00 +13°C° 0 mm 2 mps 757 mmHg 66%
    08:00 +14°C° 0 mm 2 mps 757 mmHg 62%
    09:00 +15°C° 0 mm 2 mps 757 mmHg 58%
    10:00 +17°C° 0 mm 2 mps 758 mmHg 54%
    11:00 +18°C° 0 mm 2 mps 758 mmHg 50%
    12:00 +19°C° 0 mm 2 mps 758 mmHg 46%
    13:00 +20°C° 0 mm 2 mps 757 mmHg 46%
    14:00 +20°C° 0 mm 2 mps 757 mmHg 45%
    15:00 +21°C° 0 mm 1 mps 757 mmHg 44%
    16:00 +20°C° 0 mm 1 mps 757 mmHg 50%
    17:00 +18°C° 0 mm 1 mps 757 mmHg 55%
    18:00 +16°C° 0 mm 1 mps 757 mmHg 60%
    19:00 +15°C° 0 mm 1 mps 757 mmHg 62%
    20:00 +15°C° 0 mm 1 mps 758 mmHg 64%
    21:00 +14°C° 0 mm 1 mps 758 mmHg 65%
    22:00 +14°C° 0 mm 1 mps 758 mmHg 66%
    23:00 +14°C° 0 mm 1 mps 758 mmHg 67%
    Show more